Hourly Weather Kistel'nytsya

Today, 29 July, Thursday

Time Temperature Precipitation Wind Pressure Humidity
00:00 +26°C° 0 mm 2 mps 745 mmHg 59%
01:00 +25°C° 0 mm 2 mps 745 mmHg 62%
02:00 +24°C° 0 mm 1 mps 745 mmHg 65%
03:00 +24°C° 0 mm 1 mps 745 mmHg 66%
04:00 +24°C° 0 mm 1 mps 745 mmHg 66%
05:00 +24°C° 0 mm 1 mps 745 mmHg 67%
06:00 +26°C° 0 mm 2 mps 745 mmHg 62%
07:00 +27°C° 0 mm 2 mps 745 mmHg 57%
08:00 +29°C° 0 mm 3 mps 745 mmHg 51%
09:00 +30°C° 0 mm 3 mps 744 mmHg 46%
10:00 +33°C° 0 mm 3 mps 744 mmHg 40%
11:00 +35°C° 0 mm 3 mps 744 mmHg 35%
12:00 +36°C° 0 mm 3 mps 744 mmHg 33%
13:00 +37°C° 0 mm 3 mps 744 mmHg 30%
14:00 +38°C° 0 mm 3 mps 743 mmHg 27%
15:00 +38°C° 0 mm 4 mps 743 mmHg 28%
16:00 +38°C° 0 mm 4 mps 743 mmHg 28%
17:00 +38°C° 0 mm 4 mps 742 mmHg 28%
18:00 +34°C° 0.4 mm 5 mps 742 mmHg 36%
19:00 +30°C° 0.4 mm 6 mps 743 mmHg 45%
20:00 +26°C° 0.4 mm 6 mps 743 mmHg 54%
21:00 +25°C° 0.1 mm 5 mps 743 mmHg 58%
22:00 +25°C° 0.1 mm 4 mps 743 mmHg 63%
23:00 +24°C° 0.1 mm 3 mps 743 mmHg 68%

Tomorrow, 30 July, Friday

Time Temperature Precipitation Wind Pressure Humidity
00:00 +22°C° 0 mm 3 mps 743 mmHg 70%
01:00 +22°C° 0 mm 4 mps 743 mmHg 73%
02:00 +21°C° 0 mm 5 mps 743 mmHg 75%
03:00 +21°C° 0 mm 4 mps 744 mmHg 79%
04:00 +20°C° 0 mm 3 mps 744 mmHg 84%
05:00 +20°C° 0 mm 3 mps 744 mmHg 88%
06:00 +22°C° 0 mm 4 mps 744 mmHg 81%
07:00 +23°C° 0 mm 4 mps 744 mmHg 75%
08:00 +26°C° 0 mm 5 mps 744 mmHg 69%
09:00 +28°C° 0 mm 5 mps 744 mmHg 61%
10:00 +29°C° 0 mm 5 mps 744 mmHg 53%
11:00 +32°C° 0 mm 5 mps 744 mmHg 46%
12:00 +32°C° 0 mm 5 mps 744 mmHg 43%
13:00 +33°C° 0 mm 5 mps 744 mmHg 40%
14:00 +33°C° 0 mm 4 mps 744 mmHg 37%
15:00 +33°C° 0 mm 4 mps 744 mmHg 37%
16:00 +33°C° 0 mm 4 mps 743 mmHg 36%
17:00 +33°C° 0 mm 4 mps 743 mmHg 36%
18:00 +30°C° 0 mm 3 mps 743 mmHg 41%
19:00 +28°C° 0 mm 3 mps 743 mmHg 46%
20:00 +26°C° 0 mm 2 mps 743 mmHg 51%
21:00 +25°C° 0 mm 2 mps 744 mmHg 53%
22:00 +25°C° 0 mm 2 mps 744 mmHg 55%
23:00 +24°C° 0 mm 2 mps 744 mmHg 56%

Day after tomorrow, 31 July, Saturday

Time Temperature Precipitation Wind Pressure Humidity
00:00 +24°C° 0 mm 1 mps 744 mmHg 57%
01:00 +23°C° 0 mm 1 mps 744 mmHg 58%
02:00 +23°C° 0 mm 1 mps 744 mmHg 59%
03:00 +23°C° 0 mm 1 mps 744 mmHg 60%
04:00 +20°C° 0 mm 0 mps 744 mmHg 61%
05:00 +20°C° 0 mm 0 mps 744 mmHg 63%
06:00 +22°C° 0 mm 0 mps 744 mmHg 58%
07:00 +26°C° 0 mm 1 mps 744 mmHg 52%
08:00 +28°C° 0 mm 1 mps 745 mmHg 47%
09:00 +29°C° 0 mm 1 mps 745 mmHg 43%
10:00 +30°C° 0 mm 1 mps 745 mmHg 39%
11:00 +32°C° 0 mm 2 mps 745 mmHg 35%
12:00 +32°C° 0 mm 1 mps 744 mmHg 33%
13:00 +33°C° 0 mm 1 mps 744 mmHg 30%
14:00 +34°C° 0 mm 1 mps 744 mmHg 28%
15:00 +34°C° 0 mm 1 mps 744 mmHg 28%
16:00 +34°C° 0 mm 1 mps 743 mmHg 27%
17:00 +34°C° 0 mm 1 mps 743 mmHg 27%
18:00 +32°C° 0 mm 2 mps 743 mmHg 33%
19:00 +30°C° 0 mm 2 mps 743 mmHg 38%
20:00 +27°C° 0 mm 3 mps 743 mmHg 44%
21:00 +27°C° 0 mm 3 mps 743 mmHg 48%
22:00 +26°C° 0 mm 2 mps 744 mmHg 51%
23:00 +25°C° 0 mm 2 mps 744 mmHg 55%

1 August, Sunday

Time Temperature Precipitation Wind Pressure Humidity
00:00 +24°C° 0 mm 2 mps 744 mmHg 56%
01:00 +24°C° 0 mm 2 mps 744 mmHg 58%
02:00 +23°C° 0 mm 2 mps 743 mmHg 59%
03:00 +23°C° 0 mm 2 mps 743 mmHg 62%
04:00 +23°C° 0 mm 1 mps 743 mmHg 65%
05:00 +23°C° 0 mm 1 mps 743 mmHg 68%
06:00 +25°C° 0 mm 1 mps 744 mmHg 64%
07:00 +26°C° 0 mm 2 mps 744 mmHg 59%
08:00 +28°C° 0 mm 2 mps 744 mmHg 55%
09:00 +30°C° 0 mm 2 mps 744 mmHg 50%
10:00 +31°C° 0 mm 3 mps 744 mmHg 46%
11:00 +34°C° 0 mm 3 mps 744 mmHg 42%
12:00 +34°C° 0 mm 3 mps 744 mmHg 40%
13:00 +35°C° 0 mm 3 mps 744 mmHg 38%
14:00 +36°C° 0 mm 3 mps 743 mmHg 36%
15:00 +36°C° 0 mm 3 mps 743 mmHg 36%
16:00 +36°C° 0 mm 3 mps 743 mmHg 36%
17:00 +36°C° 0 mm 3 mps 743 mmHg 35%
18:00 +34°C° 0 mm 3 mps 743 mmHg 40%
19:00 +31°C° 0 mm 3 mps 743 mmHg 44%
20:00 +28°C° 0 mm 4 mps 743 mmHg 48%
21:00 +27°C° 0 mm 4 mps 743 mmHg 50%
22:00 +26°C° 0 mm 3 mps 743 mmHg 53%
23:00 +26°C° 0 mm 3 mps 743 mmHg 55%

2 August, Monday

Time Temperature Precipitation Wind Pressure Humidity
00:00 +25°C° 0.1 mm 3 mps 743 mmHg 60%
01:00 +24°C° 0.1 mm 3 mps 743 mmHg 65%
02:00 +24°C° 0.1 mm 3 mps 743 mmHg 69%
03:00 +24°C° 0 mm 3 mps 743 mmHg 70%
04:00 +24°C° 0 mm 3 mps 742 mmHg 71%
05:00 +24°C° 0 mm 3 mps 742 mmHg 72%
06:00 +26°C° 0 mm 4 mps 742 mmHg 64%
07:00 +28°C° 0 mm 5 mps 742 mmHg 57%
08:00 +30°C° 0 mm 6 mps 742 mmHg 50%
09:00 +32°C° 0 mm 6 mps 742 mmHg 45%
10:00 +34°C° 0 mm 6 mps 742 mmHg 39%
11:00 +36°C° 0 mm 7 mps 742 mmHg 34%
12:00 +36°C° 0 mm 7 mps 741 mmHg 33%
13:00 +36°C° 0 mm 6 mps 741 mmHg 31%
14:00 +36°C° 0 mm 6 mps 741 mmHg 30%
15:00 +36°C° 0 mm 6 mps 741 mmHg 32%
16:00 +35°C° 0 mm 6 mps 741 mmHg 34%
17:00 +34°C° 0 mm 6 mps 741 mmHg 36%
18:00 +32°C° 0.2 mm 6 mps 741 mmHg 47%
19:00 +28°C° 0.2 mm 5 mps 741 mmHg 57%
20:00 +25°C° 0.2 mm 5 mps 742 mmHg 68%
21:00 +23°C° 0.4 mm 4 mps 742 mmHg 74%
22:00 +22°C° 0.4 mm 3 mps 743 mmHg 80%
23:00 +21°C° 0.4 mm 2 mps 743 mmHg 86%

3 August, Tuesday

Time Temperature Precipitation Wind Pressure Humidity
00:00 +21°C° 0.5 mm 2 mps 744 mmHg 87%
01:00 +21°C° 0.5 mm 3 mps 744 mmHg 89%
02:00 +20°C° 0.5 mm 4 mps 744 mmHg 90%
03:00 +19°C° 0 mm 4 mps 745 mmHg 89%
04:00 +17°C° 0 mm 5 mps 745 mmHg 88%
05:00 +17°C° 0 mm 5 mps 745 mmHg 87%
06:00 +17°C° 0 mm 5 mps 746 mmHg 80%
07:00 +19°C° 0 mm 6 mps 746 mmHg 72%
08:00 +20°C° 0 mm 6 mps 747 mmHg 64%
09:00 +22°C° 0 mm 5 mps 747 mmHg 58%
10:00 +23°C° 0 mm 5 mps 747 mmHg 51%
11:00 +26°C° 0 mm 4 mps 747 mmHg 45%
12:00 +26°C° 0 mm 4 mps 747 mmHg 43%
13:00 +27°C° 0 mm 4 mps 747 mmHg 41%
14:00 +28°C° 0 mm 3 mps 747 mmHg 39%
15:00 +28°C° 0 mm 3 mps 747 mmHg 39%
16:00 +28°C° 0 mm 3 mps 747 mmHg 38%
17:00 +28°C° 0 mm 3 mps 747 mmHg 38%
18:00 +26°C° 0 mm 3 mps 747 mmHg 42%
19:00 +25°C° 0 mm 2 mps 747 mmHg 46%
20:00 +23°C° 0 mm 2 mps 747 mmHg 50%
21:00 +21°C° 0 mm 2 mps 747 mmHg 52%
22:00 +21°C° 0 mm 2 mps 748 mmHg 53%
23:00 +20°C° 0 mm 2 mps 748 mmHg 55%
Show more